Weather in Mbeya

Tanzania     8°54′30″S   33°26′55″E
temp.,
°C
wind,
m/s
gust,
m/s
humid.,
%
clouds,
%
prec.,
mm/h
press.,
hPa
HPBL,
m
17 june, thu
thu1700:00+8se239728 0.0 102160
03:00+8se239799 0.0 102078
06:00+8se239636 0.0 1021122
09:00+13se237270 0.0 1021250
12:00+20sse11425 0.0 10191289
15:00+21s223921 0.0 10161750
18:00+15sse24746 0.0 1018217
21:00+10se23955 0.0 102362
18 june, fri
fri1800:00+9se23847 0.0 102348
03:00+8se238779 0.0 102250
06:00+8se228698 0.0 102240
09:00+14se2461100 0.0 1023268
12:00+19s334387 0.0 10211093
15:00+20sse4343100 0.0 10191061
18:00+14sse357086 0.0 1021299
21:00+9se34895 0.0 102498
19 june, sat
sat1900:00+9se3488100 0.0 102497
03:00+8se359584 0.0 1023108
06:00+8se359772 0.0 1023112
09:00+13se367693 0.0 1023399
12:00+19sse445071 0.0 10211363
15:00+18s545439 0.0 10191162
18:00+14sse358246 0.0 1021494
21:00+10se379767 0.1 1024304
20 june, sun
sun2000:00+11se379072 0.0 1024425
03:00+10se369742 0.0 1022308
06:00+10se379475 0.0 1022347
09:00+13se367769 0.0 1023491
12:00+17sse435734 0.0 10221100
15:00+17sse43579 0.1 1019918
18:00+13sse348238 0.0 1021444
21:00+10se359658 0.1 1023271
21 june, mon
mon2100:00+8se359839 0.0 1024161
03:00+10se379574 0.0 1021328
06:00+9se369534 0.0 1022253
09:00+13se35746 0.0 1022400
12:00+18sse435317 0.0 10201199
15:00+18sse335864 0.0 1018914
18:00+14sse347852 0.0 1019357
21:00+11se3688100 0.1 1022347